Location: Dana
(41.8364°N, 106.7042°W)
Time: 02:36:17
(UTC+00:00)

Transit 4A - Pass Details

Date: 17 May 2026
Orbit: 860 x 980 km, 66.8° (Epoch: 6 June)

Event Time Altitude Azimuth Distance (km) Brightness Sun altitude
Rises 15:52:26 0° 246° (WSW) 3,561 10.6 44.0°
Reaches altitude 10° 15:55:19 10° 258° (WSW) 2,642 10.0 44.5°
Maximum altitude 16:00:30 28° 315° (NW) 1,727 9.2 45.5°
Drops below altitude 10° 16:05:50 10° 13° (NNE) 2,714 10.4 46.4°
Sets 16:08:52 0° 25° (NNE) 3,676 11.1 47.0°
